Location: Newark
(48.2308°N, 120.8549°W)
Time: 01:41:38
(UTC+00:00)

FENGYUN 1C DEB - Pass Details

Date: 03 February 2022
Orbit: 822 x 948 km, 99.2° (Epoch: 28 May)

Event Time Altitude Azimuth Distance (km) Brightness Sun altitude
Rises 03:14:12 0° 163° (SSE) 3,612 ? -21.7°
Reaches altitude 10° 03:16:39 10° 163° (SSE) 2,668 ? -22.1°
Maximum altitude 03:22:40 88° 255° (WSW) 949 ? -23.1°
Drops below altitude 10° 03:28:37 10° 344° (NNW) 2,639 ? -24.1°
Sets 03:31:01 0° 345° (NNW) 3,571 ? -24.5°
